User: anonymous
Location: Iola
(37.9240°N, 95.4000°W)
Time: 03:12:52
(UTC-05:00)
Language:

Meteor 2-10 Rocket - Orbit

View from above orbital plane
View from above orbital plane
View from above satellite
View from above satellite

Ground track
Ground track

The orbit data is extracted from the following two-line orbital elements,

1 14453U 83109B   14232.11838844  .00000072  00000-0  24004-4 0  2162
2 14453 081.1644 064.4646 0105546 168.6488 331.6687 14.24506520600587
Epoch (UTC): 20 August 2014 02:50:28
Eccentricity: 0.0105546
inclination: 81.1644°
perigee height: 734 km
apogee height: 886 km
right ascension of ascending node: 64.4646°
argument of perigee: 168.6488°
revolutions per day: 14.24506520
mean anomaly at epoch: 331.6687°
orbit number at epoch: 60058

The dashed part of the orbit path shows where the satellite is in the earth's shadow,  

DLR